User: anonymous   Login
Location: Caltech
(34.1382°N, 118.1253°W)
Time: 08:01:14
(UTC-07:00)
Language:

Cosmos 2251 Rocket - Orbit

View from above orbital plane
View from above orbital plane
View from above satellite
View from above satellite

Ground track
Ground track

The orbit data is extracted from the following two-line orbital elements,

1 22676U 93036B   18172.67654660 -.00000029  00000-0 -11475-5 0  9999
2 22676  74.0418 226.0948 0018409 166.3100 193.8555 14.33956078308305
Epoch (UTC): 21 June 2018 16:14:13
Eccentricity: 0.0018409
inclination: 74.0418°
perigee height: 765 km
apogee height: 792 km
right ascension of ascending node: 226.0948°
argument of perigee: 166.3100°
revolutions per day: 14.33956078
mean anomaly at epoch: 193.8555°
orbit number at epoch: 30830

The dashed part of the orbit path shows where the satellite is in the earth's shadow,  

DLR